COSMOS 2251 DEB, 47053

Orbit data source: Space-Track

COSMOS 2251 DEB, 47053 is space debris in LEO originally from a launch on Wed, 16 Jun 1993 UTC launched from the Plesetsk Missile And Space Complex (PKMTR). The debris from Iridium 33, an American commercial communications satellite, has been tracked extensively since its accidental collision with the defunct Russian satellite Cosmos 2251 in 2009. This event, occurring at high speed in low Earth orbit (LEO), generated thousands of pieces of space debris, significantly increasing the risk of further collisions. The Iridium 33 debris cloud has impacted space traffic management and orbital debris mitigation strategies, making it a subject of ongoing study in space situational awareness.

Loading next visibility...
Identifier
47053, 1993-036BXH
Orbit
LEO
Country
Flag of CISCIS
Related business
Manufacturer
Unknown
Mission
Spacecraft
Bus & Motor
Unknown
Mass
Unknown
Launch date (UTC)
1993-06-16 (33 years ago)
Launch vehicle
Unknown
Launch site
Plesetsk Missile And Space Complex (PKMTR)
Object type
Payload
Rocket body
Debris
Shape & HBR
Unknown shape, 0.1 m
Radar Cross Section
Small (<0.1 m²)

Expand to show TLE details & history
Last TLE update: 4 days ago

TLE from 4 days ago
0 COSMOS 2251 DEB
1 47053U 93036BXH 25350.01389800  .00001700  00000-0  14494-2 0  9996
2 47053  74.0586 248.7599 0376931  61.5734 314.7883 13.59681102289335
Epoch: 2025-12-16T00:20Z
TLE epoch observation values (Epoch: 2025-12-16T00:20:00.787Z)
Latitude
12.64556°
Longitude
162.50728°
Altitude
847.209 km
Speed
7.525 km/s
True Right ascension
16h 49m 39s
True Declination
12° 34' 24"
Sunlit
Object was in daylight at epoch
Visualization orbit readout
Latitude
Unknown
Longitude
Unknown
Altitude
Unknown
Speed
Unknown
Apparent Right ascension
Unknown
Apparent Declination
Unknown
Sunlit
N/A
Visualization observer readout
Local Sidereal Time
04:55:57
Azimuth
Unknown
Elevation
Unknown
Doppler factor
Unknown
Orbital elements
Apogee altitude
1,313.961 km
Perigee altitude
755.146 km
Semi-major axis
7,412.691 km
Eccentricity
0.03769
Inclination
74.0586°
RAAN
248.7599°
Arg. of periapsis
61.5734°
True anomaly
311.61935°
Mean anomaly
314.7883°
Eccentric anomaly
313.21435°
Mean motion
3.40079 °/min
Orbital period
105.86 mins
BSTAR
0.0014494
Loading maneuver chart data...
Computing Atmospheric mass density...

Documentation

Showing up to 5 results
|